User: anonymous   Login
Location: Sceptre
(50.8619°N, 109.2670°W)
Time: 18:17:57
(UTC+00:00)
Language:

RESURS O1 DEB - Orbit

View from above orbital plane
View from above orbital plane
View from above satellite
View from above satellite

Ground track
Ground track

The orbit data is extracted from the following two-line orbital elements,

1 49230U 94074FJ  22266.39528450  .00013754  00000-0  14205-2 0  9990
2 49230  97.9290 318.7694 0002882  61.6271 298.5237 14.90267734 61519
Epoch (UTC): 23 September 2022 09:29:12
Eccentricity: 0.0002882
inclination: 97.9290°
perigee height: 595 km
apogee height: 599 km
right ascension of ascending node: 318.7694°
argument of perigee: 61.6271°
revolutions per day: 14.90267734
mean anomaly at epoch: 298.5237°
orbit number at epoch: 6151

The dashed part of the orbit path shows where the satellite is in the earth's shadow,  

DLR